Regional Weather Roundup
Issued by NWS

Home | Current Version | Previous Version | Text Only | Print | Product List | Glossary Off
Versions: 1 2 3 4 5 6 7 8 9 10 11 12 13 14 15 16 17 18 19 20 21 22 23 24 25 26 27 28 29 30 31 32 33 34 35 36 37 38 39 40 41 42 43 44 45 46 47 48 49 50

000
ASUS43 KMPX 231410
RWRMN
WEATHER ROUNDUP FOR MINNESOTA
NATIONAL WEATHER SERVICE TWIN CITIES/CHANHASSEN MN
900 AM CDT WED AUG 23 2017


NOTE: "FAIR" INDICATES FEW OR NO CLOUDS BELOW 12,000 FEET WITH NO
SIGNIFICANT WEATHER AND/OR OBSTRUCTIONS TO VISIBILITY. N/A MEANS
CURRENT SKY AND/OR WEATHER CONDITIONS ARE NOT AVAILABLE.

MNZ060>063-068>070-231500-
   Twin Cities Metro

CITY           SKY/WX    TMP DP  RH WIND       PRES   REMARKS
TWIN CITIES    SUNNY     63  51  65 NW6       30.11S
ST PAUL        SUNNY     63  53  70 N6        30.12R
CRYSTAL        SUNNY     62  49  62 N6        30.10S
BLAINE         SUNNY     63  52  67 NW6       30.11S
LAKEVILLE      SUNNY     61  54  77 NW6       30.11S
EDEN PRAIRIE   SUNNY     64  53  67 N5        30.10F
SOUTH ST PAUL  SUNNY     62  51  67 NW3       30.11S
LAKE ELMO      FAIR      61  54  77 NW5       30.12S
$$
MNZ001>005-007-008-013>017-022>024-027-028-231500-
   Northwest Minnesota

CITY           SKY/WX    TMP DP  RH WIND       PRES   REMARKS
BEMIDJI        SUNNY     55  54  94 CALM      30.13R
HALLOCK        PTSUNNY   55  52  88 CALM      30.11F
ROSEAU           N/A     52  46  82 CALM      30.12S
WARROAD        PTSUNNY   52  46  82 CALM      30.12S
THIEF RVR FALL CLOUDY    54  52  93 CALM      30.13S
CROOKSTON      CLOUDY    54  52  94 CALM      30.13R
FOSSTON          N/A     52  50  93 CALM      30.13S
DETROIT LAKES  SUNNY     59  52  77 CALM      30.13F
MOORHEAD       SUNNY     57  50  77 CALM      30.12S
PARK RAPIDS    SUNNY     57  53  86 NW3       30.13R
MAHNOMEN       CLOUDY    52  49  91 CALM      30.12F
$$
MNZ006-009>011-018-025>026-231500-
   North Central Minnesota

CITY           SKY/WX    TMP DP  RH WIND       PRES   REMARKS
BAUDETTE       MOSUNNY   57  54  89 CALM      30.12R
FLAG ISLAND    PTSUNNY   57  54  88 CALM      30.10S
INTL FALLS     SUNNY     58  49  72 N6        30.11R
WASKISH        SUNNY     55  52  88 CALM      30.12S
BIG FORK       SUNNY     52  52 100 CALM      30.12S
LONGVILLE      CLOUDY    59  55  88 CALM      30.11S
GRAND RAPIDS   SUNNY     57  51  80 N6        30.13
CRANE LAKE     SUNNY     52  46  82 NE5       30.12S
ORR            CLOUDY    55  48  76 CALM      30.09R
COOK           MOSUNNY   55  52  88 NW3       30.11R
WALKER         FAIR      56  53  90 CALM      30.12S
$$
MNZ012-019>021-037-231500-
   Northeast Minnesota

CITY           SKY/WX    TMP DP  RH WIND       PRES   REMARKS
DULUTH         MOSUNNY   56  52  86 NW6       30.08S
ELY            MOSUNNY   52  46  82 N5        30.09R
HIBBING        CLOUDY    54  51  90 N7        30.10R
EVELETH        PTSUNNY   58  47  69 NW8       30.10S
DULUTH HARBOR  PTSUNNY   59  54  82 W5        30.09S
TWO HARBORS    MOSUNNY   61  54  77 N5        30.05S
GRAND MARAIS     N/A     58  45  62 VRB5      30.04R
G MARAIS ARPRT SUNNY     52  41  66 NW9G18    30.04S
$$
MNZ029>031-032-039>041-046>048-054>057-064-231500-
   West Central Minnesota

CITY           SKY/WX    TMP DP  RH WIND       PRES   REMARKS
FERGUS FALLS   SUNNY     59  52  77 CALM      30.13S
WHEATON        SUNNY     61  50  67 N5        30.14S
MORRIS         SUNNY     59  52  77 NW3       30.12S
ALEXANDRIA     SUNNY     64  54  69 NW3       30.14R
ELBOW LAKE     FAIR      59  54  85 CALM      30.13S
WADENA         SUNNY     55  54  94 CALM      30.13R
GLENWOOD       SUNNY     63  54  72 NW3       30.13S
APPLETON       SUNNY     61  52  72 CALM      30.12S
BENSON         SUNNY     59  52  77 CALM      30.14S
ORTONVILLE     SUNNY     61  52  72 MISG      30.13R
MADISON        SUNNY     63  57  82 CALM      30.13R
WILLMAR        FAIR      57  55  94 CALM      30.14S
$$
MNZ033>034-036-042>043-049>051-058-059-231500-
   Central Minnesota

CITY           SKY/WX    TMP DP  RH WIND       PRES   REMARKS
ST CLOUD       SUNNY     60  53  77 N6        30.12S
SAUK CENTRE    FAIR      60  52  75 NW3       30.13S
PAYNESVILLE    MOSUNNY   59  56  88 CALM      30.13S
AITKIN         SUNNY     55  54  94 CALM      30.10S
PINE RIVER     SUNNY     55  50  82 CALM      30.15S
BRAINERD       SUNNY     58  53  84 N3        30.12S
STAPLES        SUNNY     55  52  88 CALM      30.13S
LONG PRAIRIE   FAIR      59  52  77 NW3       30.14R
LITTLE FALLS   SUNNY     55  50  82 CALM      30.13R
LITCHFIELD     SUNNY     64  54  68 CALM      30.13S
BUFFALO        SUNNY     61  51  69 NW5       30.13S
MAPLE LAKE     SUNNY     62  55  76 N5        30.14R
HUTCHINSON     MOSUNNY   60  55  85 CALM      30.14S
$$
MNZ037-044-045-052-053-231500-
   East Central Minnesota

CITY           SKY/WX    TMP DP  RH WIND       PRES   REMARKS
PRINCETON      SUNNY     61  54  77 NW3       30.12S
MORA           SUNNY     59  50  72 N3        30.13S
CAMBRIDGE      SUNNY     61  54  77 NW5       30.12S
RUSH CITY      SUNNY     59  52  76 N6        30.11S
MOOSE LAKE     SUNNY     55  52  88 CALM      30.09S
HINCKLEY       FAIR      59  54  82 N5        30.11S
CLOQUET        SUNNY     55  50  82 NW8       30.09S
MCGREGOR       SUNNY     55  52  88 NW7       30.12S
$$
MNZ071>073-080-081-089-090-097-098-231500-
   Southwest Minnesota

CITY           SKY/WX    TMP DP  RH WIND       PRES   REMARKS
MONTEVIDEO     SUNNY     64  57  77 CALM      30.13S
GRANITE FALLS  SUNNY     60  54  81 CALM      30.15S
CANBY          SUNNY     65  53  65 CALM      30.14S
MARSHALL       SUNNY     63  54  72 W5        30.14S
REDWOOD FALLS  SUNNY     60  51  72 W3        30.13S
OLIVIA         SUNNY     59  54  82 NW3       30.13S
PIPESTONE      SUNNY     64  54  68 CALM      30.15S
WINDOM         SUNNY     63  54  72 W3        30.15S
WORTHINGTON    SUNNY     63  54  72 W3        30.17R
JACKSON        SUNNY     61  52  72 CALM      30.16S
TRACY          SUNNY     64  54  69 W6        30.15R
SLAYTON        SUNNY     61  49  65 CALM      30.16S
$$
MNZ065>067-074>077-082>085-091>093-231500-
   South Central Minnesota

CITY           SKY/WX    TMP DP  RH WIND       PRES   REMARKS
MANKATO        SUNNY     59  53  80 NW5       30.13S
NEW ULM        SUNNY     59  54  82 CALM      30.13S
ST JAMES       SUNNY     61  54  77 W5        30.15R
FAIRMONT       SUNNY     63  53  70 W5        30.15R
GLENCOE        SUNNY     61  56  84 NW3       30.12S
FARIBAULT      SUNNY     61  54  77 CALM      30.12S
OWATONNA       SUNNY     57  54  88 CALM      30.12F
WASECA         SUNNY     55  54  94 CALM      30.14S
ALBERT LEA     SUNNY     63  55  77 CALM      30.13S
$$
MNZ078>079-086>088-094>096-231500-
   Southeast Minnesota

CITY           SKY/WX    TMP DP  RH WIND       PRES   REMARKS
ROCHESTER      SUNNY     59  53  80 NW9       30.13S
RED WING       SUNNY     61  52  72 W7        30.10S
STANTON        SUNNY     60  53  77 CALM      30.11S
DODGE CENTER   SUNNY     61  52  72 NW8       30.12S
WINONA         SUNNY     61  52  72 N6        30.10F
AUSTIN         SUNNY     61  52  72 NW6       30.12S
PRESTON        SUNNY     58  51  75 NW8       30.12S
$$
ABBREVIATIONS USED IN REMARKS
   TC - TEMPERATURES IN CELSIUS
  WCI - WIND CHILL INDEX
   HX - HEAT INDEX
  VSB - VISIBILITY
$$




USA.gov is the U.S. government's official web portal to all federal, state and local government web resources and services.